Time,TemperatureF,DewpointF,PressureIn,WindDirection,WindDirectionDegrees,WindSpeedMPH,WindSpeedGustMPH,Humidity,HourlyPrecipIn,Conditions,Clouds,dailyrainin,SolarRadiationWatts/m^2,SoftwareType,DateUTC
2013-11-08 00:03:00,35.0,22.0,-100.00,West,281,3.0,12.0,58,0.00,,,0.38,0.000000,,2013-11-08 05:03:00,
2013-11-08 00:10:00,35.0,23.0,-100.00,West,272,3.0,10.0,61,0.00,,,0.38,0.000000,,2013-11-08 05:10:00,
2013-11-08 00:44:00,35.0,23.0,-100.00,West,272,3.0,10.0,61,0.00,,,0.38,0.000000,,2013-11-08 05:44:00,
2013-11-08 00:54:00,35.0,23.0,-100.00,West,272,3.0,10.0,61,0.00,,,0.38,0.000000,,2013-11-08 05:54:00,
2013-11-08 01:04:00,35.0,23.0,-100.00,West,272,3.0,10.0,61,0.00,,,0.38,0.000000,,2013-11-08 06:04:00,
2013-11-08 01:10:00,35.0,24.0,-100.00,West,266,3.0,9.0,63,0.00,,,-99.99,0.000000,,2013-11-08 06:10:00,
2013-11-08 01:42:00,35.0,24.0,-100.00,West,266,3.0,9.0,63,0.00,,,-99.99,0.000000,,2013-11-08 06:42:00,
2013-11-08 01:53:00,35.0,24.0,-100.00,West,266,3.0,9.0,63,0.00,,,-99.99,0.000000,,2013-11-08 06:53:00,
2013-11-08 02:02:00,35.0,24.0,-100.00,West,266,3.0,9.0,63,0.00,,,-99.99,0.000000,,2013-11-08 07:02:00,
2013-11-08 02:10:00,33.0,22.0,-100.00,East,79,1.0,7.0,64,0.00,,,0.38,0.000000,,2013-11-08 07:10:00,
2013-11-08 02:42:00,33.0,22.0,-100.00,East,79,1.0,7.0,64,0.00,,,0.38,0.000000,,2013-11-08 07:42:00,
2013-11-08 02:52:00,33.0,22.0,-100.00,East,79,1.0,7.0,64,0.00,,,0.38,0.000000,,2013-11-08 07:52:00,
2013-11-08 03:02:00,33.0,22.0,-100.00,East,79,1.0,7.0,64,0.00,,,0.38,0.000000,,2013-11-08 08:02:00,
2013-11-08 03:10:00,29.0,24.0,-100.00,East,96,0.0,2.0,80,0.00,,,0.38,0.000000,,2013-11-08 08:10:00,
2013-11-08 03:42:00,29.0,24.0,-100.00,East,96,0.0,2.0,80,0.00,,,0.38,0.000000,,2013-11-08 08:42:00,
2013-11-08 03:52:00,29.0,24.0,-100.00,East,96,0.0,2.0,80,0.00,,,0.38,0.000000,,2013-11-08 08:52:00,
2013-11-08 04:03:00,29.0,24.0,-100.00,East,96,0.0,2.0,80,0.00,,,0.38,0.000000,,2013-11-08 09:03:00,
2013-11-08 04:10:00,28.0,24.0,-100.00,ENE,77,1.0,2.0,86,0.00,,,0.38,0.000000,,2013-11-08 09:10:00,
2013-11-08 04:43:00,28.0,24.0,-100.00,ENE,77,1.0,2.0,86,0.00,,,0.38,0.000000,,2013-11-08 09:43:00,
2013-11-08 04:54:00,28.0,24.0,-100.00,ENE,77,1.0,2.0,86,0.00,,,0.38,0.000000,,2013-11-08 09:54:00,
2013-11-08 05:03:00,28.0,24.0,-100.00,ENE,77,1.0,2.0,86,0.00,,,0.38,0.000000,,2013-11-08 10:03:00,
2013-11-08 05:10:00,28.0,25.0,-100.00,ESE,113,1.0,2.0,89,0.00,,,0.38,0.000000,,2013-11-08 10:10:00,
2013-11-08 05:43:00,28.0,25.0,-100.00,ESE,113,1.0,2.0,89,0.00,,,0.38,0.000000,,2013-11-08 10:43:00,
2013-11-08 05:53:00,28.0,25.0,-100.00,ESE,113,1.0,2.0,89,0.00,,,0.38,0.000000,,2013-11-08 10:53:00,
2013-11-08 06:02:00,28.0,25.0,-100.00,ESE,113,1.0,2.0,89,0.00,,,0.38,0.000000,,2013-11-08 11:02:00,
2013-11-08 06:10:00,28.0,25.0,-100.00,ESE,119,0.0,2.0,88,0.00,,,0.36,0.000000,,2013-11-08 11:10:00,
2013-11-08 06:43:00,28.0,25.0,-100.00,ESE,119,0.0,2.0,88,0.00,,,0.36,0.000000,,2013-11-08 11:43:00,
2013-11-08 06:52:00,28.0,25.0,-100.00,ESE,119,0.0,2.0,88,0.00,,,0.36,0.000000,,2013-11-08 11:52:00,
2013-11-08 07:02:00,28.0,25.0,-100.00,ESE,119,0.0,2.0,88,0.00,,,0.36,0.000000,,2013-11-08 12:02:00,
2013-11-08 07:10:00,29.0,26.0,-100.00,East,81,1.0,2.0,90,0.00,,,0.34,2.000000,,2013-11-08 12:10:00,
2013-11-08 07:42:00,29.0,26.0,-100.00,East,81,1.0,2.0,90,0.00,,,0.34,2.000000,,2013-11-08 12:42:00,
2013-11-08 07:52:00,29.0,26.0,-100.00,East,81,1.0,2.0,90,0.00,,,0.34,2.000000,,2013-11-08 12:52:00,
2013-11-08 08:01:00,29.0,26.0,-100.00,East,81,1.0,2.0,90,0.00,,,0.34,2.000000,,2013-11-08 13:01:00,
2013-11-08 08:10:00,33.0,27.0,-100.00,SW,235,2.0,4.0,78,0.00,,,0.26,32.000000,,2013-11-08 13:10:00,
2013-11-08 08:42:00,33.0,27.0,-100.00,SW,235,2.0,4.0,78,0.00,,,0.26,32.000000,,2013-11-08 13:42:00,
2013-11-08 08:52:00,33.0,27.0,-100.00,SW,235,2.0,4.0,78,0.00,,,0.26,32.000000,,2013-11-08 13:52:00,
2013-11-08 09:02:00,33.0,27.0,-100.00,SW,235,2.0,4.0,78,0.00,,,0.26,32.000000,,2013-11-08 14:02:00,
2013-11-08 09:10:00,35.0,26.0,-100.00,SSW,208,2.0,6.0,70,0.00,,,0.22,82.000000,,2013-11-08 14:10:00,
2013-11-08 09:42:00,35.0,26.0,-100.00,SSW,208,2.0,6.0,70,0.00,,,0.22,82.000000,,2013-11-08 14:42:00,
2013-11-08 09:52:00,35.0,26.0,-100.00,SSW,208,2.0,6.0,70,0.00,,,0.22,82.000000,,2013-11-08 14:52:00,
2013-11-08 10:02:00,35.0,26.0,-100.00,SSW,208,2.0,6.0,70,0.00,,,0.22,82.000000,,2013-11-08 15:02:00,
2013-11-08 10:10:00,37.0,23.0,-100.00,West,276,6.0,14.0,57,0.00,,,0.17,100.000000,,2013-11-08 15:10:00,
2013-11-08 10:44:00,37.0,23.0,-100.00,West,276,6.0,14.0,57,0.00,,,0.17,100.000000,,2013-11-08 15:44:00,
2013-11-08 10:53:00,37.0,23.0,-100.00,West,276,6.0,14.0,57,0.00,,,0.17,100.000000,,2013-11-08 15:53:00,
2013-11-08 11:03:00,37.0,23.0,-100.00,West,276,6.0,14.0,57,0.00,,,0.17,100.000000,,2013-11-08 16:03:00,
2013-11-08 11:10:00,38.0,23.0,-100.00,WNW,290,5.0,19.0,54,0.00,,,0.05,112.000000,,2013-11-08 16:10:00,
2013-11-08 11:42:00,38.0,23.0,-100.00,WNW,290,5.0,19.0,54,0.00,,,0.05,112.000000,,2013-11-08 16:42:00,
2013-11-08 11:53:00,38.0,23.0,-100.00,WNW,290,5.0,19.0,54,0.00,,,0.05,112.000000,,2013-11-08 16:53:00,
2013-11-08 12:02:00,38.0,23.0,-100.00,WNW,290,5.0,19.0,54,0.00,,,0.05,112.000000,,2013-11-08 17:02:00,
2013-11-08 12:10:00,37.0,24.0,-100.00,NW,309,4.0,17.0,58,0.00,,,0.02,123.000000,,2013-11-08 17:10:00,
2013-11-08 12:43:00,37.0,24.0,-100.00,NW,309,4.0,17.0,58,0.00,,,0.02,123.000000,,2013-11-08 17:43:00,
2013-11-08 12:53:00,37.0,24.0,-100.00,NW,309,4.0,17.0,58,0.00,,,0.02,123.000000,,2013-11-08 17:53:00,
2013-11-08 13:02:00,37.0,24.0,-100.00,NW,309,4.0,17.0,58,0.00,,,0.02,123.000000,,2013-11-08 18:02:00,
2013-11-08 13:10:00,39.0,23.0,-100.00,West,274,6.0,19.0,52,0.00,,,-99.99,185.000000,,2013-11-08 18:10:00,
2013-11-08 13:43:00,39.0,23.0,-100.00,West,274,6.0,19.0,52,0.00,,,-99.99,185.000000,,2013-11-08 18:43:00,
2013-11-08 13:53:00,39.0,23.0,-100.00,West,274,6.0,19.0,52,0.00,,,-99.99,185.000000,,2013-11-08 18:53:00,
2013-11-08 14:02:00,39.0,23.0,-100.00,West,274,6.0,19.0,52,0.00,,,-99.99,185.000000,,2013-11-08 19:02:00,
2013-11-08 14:10:00,38.0,23.0,-100.00,WNW,283,5.0,16.0,54,0.00,,,0.00,109.000000,,2013-11-08 19:10:00,
2013-11-08 14:42:00,38.0,23.0,-100.00,WNW,283,5.0,16.0,54,0.00,,,0.00,109.000000,,2013-11-08 19:42:00,
2013-11-08 14:53:00,38.0,23.0,-100.00,WNW,283,5.0,16.0,54,0.00,,,0.00,109.000000,,2013-11-08 19:53:00,
2013-11-08 15:02:00,38.0,23.0,-100.00,WNW,283,5.0,16.0,54,0.00,,,0.00,109.000000,,2013-11-08 20:02:00,
2013-11-08 15:10:00,35.0,23.0,-100.00,West,276,5.0,16.0,62,0.00,,,0.00,80.000000,,2013-11-08 20:10:00,
2013-11-08 15:42:00,35.0,23.0,-100.00,West,276,5.0,16.0,62,0.00,,,0.00,80.000000,,2013-11-08 20:42:00,
2013-11-08 15:53:00,35.0,23.0,-100.00,West,276,5.0,16.0,62,0.00,,,0.00,80.000000,,2013-11-08 20:53:00,
2013-11-08 16:02:00,35.0,23.0,-100.00,West,276,5.0,16.0,62,0.00,,,0.00,80.000000,,2013-11-08 21:02:00,
2013-11-08 16:10:00,35.0,22.0,-100.00,West,271,4.0,15.0,58,0.00,,,0.00,39.000000,,2013-11-08 21:10:00,
2013-11-08 16:45:00,35.0,22.0,-100.00,West,271,4.0,15.0,58,0.00,,,0.00,39.000000,,2013-11-08 21:45:00,
2013-11-08 16:54:00,35.0,22.0,-100.00,West,271,4.0,15.0,58,0.00,,,0.00,39.000000,,2013-11-08 21:54:00,
2013-11-08 17:04:00,35.0,22.0,-100.00,West,271,4.0,15.0,58,0.00,,,0.00,39.000000,,2013-11-08 22:04:00,
2013-11-08 17:10:00,34.0,23.0,-100.00,West,275,4.0,14.0,63,0.00,,,0.00,1.000000,,2013-11-08 22:10:00,
2013-11-08 17:43:00,34.0,23.0,-100.00,West,275,4.0,14.0,63,0.00,,,0.00,1.000000,,2013-11-08 22:43:00,
2013-11-08 17:53:00,34.0,23.0,-100.00,West,275,4.0,14.0,63,0.00,,,0.00,1.000000,,2013-11-08 22:53:00,
2013-11-08 18:03:00,34.0,23.0,-100.00,West,275,4.0,14.0,63,0.00,,,0.00,1.000000,,2013-11-08 23:03:00,
2013-11-08 18:10:00,34.0,25.0,-100.00,West,264,4.0,11.0,68,0.00,,,0.00,0.000000,,2013-11-08 23:10:00,
2013-11-08 18:43:00,34.0,25.0,-100.00,West,264,4.0,11.0,68,0.00,,,0.00,0.000000,,2013-11-08 23:43:00,
2013-11-08 18:53:00,34.0,25.0,-100.00,West,264,4.0,11.0,68,0.00,,,0.00,0.000000,,2013-11-08 23:53:00,
2013-11-08 19:02:00,34.0,25.0,-100.00,West,264,4.0,11.0,68,0.00,,,0.00,0.000000,,2013-11-09 00:02:00,
2013-11-08 19:10:00,34.0,23.0,-100.00,West,264,4.0,14.0,63,0.00,,,0.00,0.000000,,2013-11-09 00:10:00,
2013-11-08 19:42:00,34.0,23.0,-100.00,West,264,4.0,14.0,63,0.00,,,0.00,0.000000,,2013-11-09 00:42:00,
2013-11-08 19:52:00,34.0,23.0,-100.00,West,264,4.0,14.0,63,0.00,,,0.00,0.000000,,2013-11-09 00:52:00,
2013-11-08 20:02:00,34.0,23.0,-100.00,West,264,4.0,14.0,63,0.00,,,0.00,0.000000,,2013-11-09 01:02:00,
2013-11-08 20:10:00,34.0,23.0,-100.00,West,266,4.0,11.0,64,0.00,,,0.00,0.000000,,2013-11-09 01:10:00,
2013-11-08 20:42:00,34.0,23.0,-100.00,West,266,4.0,11.0,64,0.00,,,0.00,0.000000,,2013-11-09 01:42:00,
2013-11-08 20:52:00,34.0,23.0,-100.00,West,266,4.0,11.0,64,0.00,,,0.00,0.000000,,2013-11-09 01:52:00,
2013-11-08 21:02:00,34.0,23.0,-100.00,West,266,4.0,11.0,64,0.00,,,0.00,0.000000,,2013-11-09 02:02:00,
2013-11-08 21:10:00,34.0,22.0,-100.00,West,266,5.0,11.0,61,0.00,,,0.00,0.000000,,2013-11-09 02:10:00,
2013-11-08 21:42:00,34.0,22.0,-100.00,West,266,5.0,11.0,61,0.00,,,0.00,0.000000,,2013-11-09 02:42:00,
2013-11-08 21:52:00,34.0,22.0,-100.00,West,266,5.0,11.0,61,0.00,,,0.00,0.000000,,2013-11-09 02:52:00,
2013-11-08 22:02:00,34.0,22.0,-100.00,West,266,5.0,11.0,61,0.00,,,0.00,0.000000,,2013-11-09 03:02:00,
2013-11-08 22:10:00,34.0,20.0,-100.00,West,263,7.0,14.0,57,0.00,,,0.00,0.000000,,2013-11-09 03:10:00,
2013-11-08 22:44:00,34.0,20.0,-100.00,West,263,7.0,14.0,57,0.00,,,0.00,0.000000,,2013-11-09 03:44:00,
2013-11-08 22:54:00,34.0,20.0,-100.00,West,263,7.0,14.0,57,0.00,,,0.00,0.000000,,2013-11-09 03:54:00,
2013-11-08 23:04:00,34.0,20.0,-100.00,West,263,7.0,14.0,57,0.00,,,0.00,0.000000,,2013-11-09 04:04:00,
2013-11-08 23:10:00,33.0,20.0,-100.00,West,274,4.0,14.0,59,0.00,,,0.00,0.000000,,2013-11-09 04:10:00,
2013-11-08 23:43:00,33.0,20.0,-100.00,West,274,4.0,14.0,59,0.00,,,0.00,0.000000,,2013-11-09 04:43:00,
2013-11-08 23:54:00,33.0,20.0,-100.00,West,274,4.0,14.0,59,0.00,,,0.00,0.000000,,2013-11-09 04:54:00,